Regional Weather Roundup
Issued by NWS Columbia, SC

Home | Current Version | Previous Version | Text Only | Print | Product List | Glossary On
Versions: 1 2 3 4 5 6 7 8 9 10 11 12 13 14 15 16 17 18 19 20 21 22 23 24 25 26 27 28
000
ASUS42 KCAE 200910
RWRCAE
REGIONAL WEATHER ROUNDUP
NATIONAL WEATHER SERVICE COLUMBIA SC
500 AM EDT FRI OCT 20 2017

NOTE: "FAIR" INDICATES FEW OR NO CLOUDS BELOW 12,000 FEET WITH NO
SIGNIFICANT WEATHER AND/OR OBSTRUCTIONS TO VISIBILITY.

NOT ALL STATIONS ARE QUALITY CONTROLLED BY THE NATIONAL
WEATHER SERVICE. USE DATA WITH CAUTION...ESPECIALLY
DEWPOINT OBSERVATIONS.

SCZ001>056-GAZ040-063>065-077-201000-
...UPSTATE SOUTH CAROLINA...

CITY           SKY/WX    TMP DP  RH WIND       PRES   REMARKS
ANDERSON       FOG       45  44  97 CALM      30.24S VSB 1/2
LIBERTY        FAIR      40  40 100 CALM      30.24R
SPARTANBURG    FAIR      45  43  93 CALM      30.23S
CLEMSON        FAIR      51  51 100 CALM      30.25S
GREENVILLE     FAIR      49  45  86 CALM      30.24S
GREENWOOD      FAIR      42  41  96 CALM      30.25S
GREER          FAIR      47  46  97 CALM      30.24S
ROCK HILL      FAIR      44  44 100 CALM      30.24R
CHESTER        FAIR      45  43  93 CALM      30.24S
LAURENS        FAIR      46  43  87 CALM      30.24S


...CENTRAL SOUTH CAROLINA...

CITY           SKY/WX    TMP DP  RH WIND       PRES   REMARKS
COLUMBIA APT   FAIR      46  44  93 CALM      30.23R
COLUMBIA OWENS FAIR      49  46  90 CALM      30.25R
MCENTIRE ANGB  FAIR      44  44  99 CALM      30.23R
ORANGEBURG     FAIR      50  48  93 CALM      30.23S
SUMTER SHAW    FAIR      49  45  85 CALM      30.21R
NEWBERRY       FAIR      43  43 100 CALM      30.26S
AIKEN          FAIR      43  41  93 CALM      30.27R
BARNWELL         N/A     46  46 100 CALM      30.23S
MANNING        FOG       46  46 100 MISG      30.23R VSB<1/4
CAMDEN         FAIR      43  41  93 CALM      30.24R
LANCASTER      FAIR      41  41 100 CALM      30.24S
WINNSBORO      FAIR      46  43  87 NW3       30.23S


...EASTERN AND COASTAL SOUTH CAROLINA...

CITY           SKY/WX    TMP DP  RH WIND       PRES   REMARKS
MYRTLE BEACH   FAIR      56  54  93 CALM      30.22S
N MYRTLE BCH   FAIR      56  54  93 N5        30.21R
MARION         FAIR      46  46 100 CALM      30.23R
HARTSVILLE     FAIR      43  41  93 CALM      30.23R
FLORENCE       FAIR      49  48  97 CALM      30.23R
DARLINGTON     FAIR      45  44  97 CALM      30.24R
CHARLESTON APT FAIR      56  55  97 CALM      30.20S
MOUNT PLEASANT FAIR      57  55  94 N3        30.21R
WALTERBORO     FAIR      50  48  93 CALM      30.22S
BEAUFORT       FAIR      56  56 100 MISG      30.20S


...EASTERN GEORGIA...

CITY           SKY/WX    TMP DP  RH WIND       PRES   REMARKS
AUGUSTA BUSH F FAIR      45  43  93 CALM      30.24R
AUGUSTA DANIEL FAIR      56  45  66 CALM      30.24R
THOMSON        FAIR      41  40  95 CALM      30.29S
WASHINGTON     FAIR      46  45  93 NW5       30.24S
CLAXTON        FAIR      49  49  99 CALM      30.21S
SYLVANIA       FAIR      48  48 100 CALM      30.23R
STATESBORO     FAIR      49  49 100 CALM      30.22R FOG
SAVANNAH       FAIR      55  54  96 N3        30.20F


...SOUTHERN NORTH CAROLINA...

CITY           SKY/WX    TMP DP  RH WIND       PRES   REMARKS
CHARLOTTE      FAIR      45  45 100 CALM      30.23S
MONROE         FAIR      44  44 100 CALM      30.23R
WADESBORO      FAIR      39  37  92 CALM      30.23S
RUTHERFORDTON  FAIR      45  45 100 W3        30.25S
ASHEVILLE      FAIR      41  39  93 CALM      30.31S

$$




USA.gov is the U.S. government's official web portal to all federal, state and local government web resources and services.